Slayton, MN

7:21 AM CDT on July 22, 2017 (GMT -0500)
Slayton

Weather History for KDVP - July, 2013

Change the Weather History Date:

Wednesday, July 10, 2013

  Actual Average (KOTG) Record (KOTG)
Temperature  
Mean Temperature 68 °F -  
Max Temperature 77 °F 78 °F 103 °F (1976)
Min Temperature 58 °F 60 °F 48 °F (1996)
Cooling Degree Days 2    
Growing Degree Days 18 (Base 50)    
Moisture  
Dew Point 55 °F    
Average Humidity 66    
Maximum Humidity 95    
Minimum Humidity 34    
Precipitation  
Precipitation 0.00 in - - ()
Sea Level Pressure  
Sea Level Pressure 30.11 in    
Wind  
Wind Speed 7 mph (NNW)    
Max Wind Speed 14 mph    
Max Gust Speed -    
Visibility 10 miles    
Events      
Averages and records for this station are not official NWS values.
T = Trace of Precipitation, MM = Missing Value Source: NWS Daily Summary

Daily Weather History Graph

Daily Weather History Graph

Search for Another Location

Airport or City:

Trip Planner

Search our weather history database for the weather conditions in past years. The results will help you decide how hot, cold, wet, or windy it might be!

Date:

Astronomy

Jul. 10, 2013 Rise Set
Actual Time 5:50 AM CDT 9:06 PM CDT
Civil Twilight 5:14 AM CDT 9:41 PM CDT
Nautical Twilight 4:28 AM CDT 10:27 PM CDT
Astronomical Twilight 3:32 AM CDT 11:23 PM CDT
Moon 8:18 AM CDT (7/10) 10:08 PM CDT (7/10)
Length of Visible Light 16h 26m
Length of Day
15h 16m
Waxing Crescent, 5% of the Moon is Illuminated
Jul 10
Waxing Crescent
Jul 15
First Quarter
Jul 22
Full
Jul 29
Last Quarter
Aug 6
New

Hourly Weather History & Observations

Time (CDT) Temp. Dew Point Humidity Pressure Visibility Wind Dir Wind Speed Gust Speed Precip Events Conditions
12:13 AM 68.0 °F 64.6 °F 89% 30.06 in 10.0 mi NNW 10.4 mph - N/A   Clear
12:33 AM 67.3 °F 64.6 °F 91% 30.07 in 10.0 mi North 9.2 mph - N/A   Clear
12:53 AM 67.1 °F 64.8 °F 92% 30.07 in 10.0 mi North 10.4 mph - N/A   Mostly Cloudy
1:13 AM 65.8 °F 63.1 °F 91% 30.07 in 10.0 mi North 13.8 mph - N/A   Scattered Clouds
1:33 AM 64.9 °F 61.3 °F 88% 30.07 in 10.0 mi NNW 11.5 mph - N/A   Clear
1:52 AM 64.4 °F 61.5 °F 90% 30.07 in 10.0 mi NNW 10.4 mph - N/A   Clear
2:13 AM 63.5 °F 61.0 °F 91% 30.07 in 10.0 mi NNW 8.1 mph - N/A   Clear
2:33 AM 63.0 °F 60.8 °F 93% 30.08 in 10.0 mi NNW 8.1 mph - N/A   Clear
2:53 AM 62.6 °F 60.3 °F 92% 30.09 in 10.0 mi NNW 5.8 mph - N/A   Clear
3:13 AM 61.9 °F 59.9 °F 93% 30.09 in 10.0 mi NNW 6.9 mph - N/A   Clear
3:33 AM 61.7 °F 59.5 °F 93% 30.10 in 10.0 mi NNW 5.8 mph - N/A   Clear
3:53 AM 60.8 °F 59.2 °F 94% 30.10 in 10.0 mi NNW 6.9 mph - N/A   Clear
4:12 AM 60.8 °F 59.2 °F 94% 30.11 in 10.0 mi NNW 6.9 mph - N/A   Clear
4:33 AM 60.6 °F 58.5 °F 93% 30.11 in 10.0 mi NNW 5.8 mph - N/A   Clear
4:53 AM 59.9 °F 57.7 °F 93% 30.12 in 10.0 mi North 8.1 mph - N/A   Clear
5:14 AM 59.5 °F 57.2 °F 92% 30.12 in 10.0 mi NNW 5.8 mph - N/A   Clear
5:33 AM 59.2 °F 57.2 °F 93% 30.13 in 10.0 mi NNW 4.6 mph - N/A   Clear
5:53 AM 58.6 °F 56.8 °F 94% 30.13 in 10.0 mi NNW 5.8 mph - N/A   Clear
6:13 AM 58.6 °F 56.7 °F 93% 30.13 in 10.0 mi NNW 5.8 mph - N/A   Clear
6:33 AM 58.3 °F 56.5 °F 94% 30.14 in 7.0 mi WNW 4.6 mph - N/A   Clear
6:53 AM 58.5 °F 57.0 °F 95% 30.14 in 7.0 mi NW 6.9 mph - N/A   Clear
7:14 AM 59.5 °F 57.2 °F 92% 30.14 in 10.0 mi NW 5.8 mph - N/A   Clear
7:33 AM 60.3 °F 57.9 °F 92% 30.15 in 10.0 mi NW 8.1 mph - N/A   Clear
7:53 AM 60.8 °F 58.1 °F 91% 30.14 in 10.0 mi NNW 9.2 mph - N/A   Clear
8:13 AM 61.9 °F 57.4 °F 85% 30.14 in 10.0 mi NNW 10.4 mph - N/A   Clear
8:33 AM 63.0 °F 57.7 °F 83% 30.15 in 10.0 mi North 9.2 mph - N/A   Clear
8:52 AM 63.9 °F 57.4 °F 79% 30.15 in 10.0 mi North 12.7 mph - N/A   Clear
9:13 AM 64.4 °F 56.3 °F 75% 30.15 in 10.0 mi North 13.8 mph - N/A   Clear
9:33 AM 65.1 °F 55.6 °F 71% 30.15 in 10.0 mi North 11.5 mph - N/A   Clear
9:54 AM 66.2 °F 55.2 °F 68% 30.15 in 10.0 mi North 10.4 mph - N/A   Clear
10:13 AM 66.7 °F 53.2 °F 62% 30.16 in 10.0 mi North 8.1 mph - N/A   Clear
10:33 AM 67.3 °F 53.1 °F 60% 30.15 in 10.0 mi NNE 6.9 mph - N/A   Clear
10:53 AM 68.2 °F 54.0 °F 60% 30.15 in 10.0 mi NNW 9.2 mph - N/A   Clear
11:14 AM 68.9 °F 52.3 °F 55% 30.15 in 10.0 mi North 8.1 mph - N/A   Clear
11:32 AM 69.4 °F 51.6 °F 53% 30.15 in 10.0 mi NNW 8.1 mph - N/A   Clear
11:54 AM 70.2 °F 51.4 °F 51% 30.15 in 10.0 mi North 8.1 mph - N/A   Clear
12:13 PM 71.2 °F 51.8 °F 50% 30.15 in 10.0 mi NNW 9.2 mph - N/A   Clear
12:33 PM 72.0 °F 52.2 °F 50% 30.15 in 10.0 mi North 9.2 mph - N/A   Clear
12:53 PM 72.3 °F 51.4 °F 48% 30.14 in 10.0 mi North 8.1 mph - N/A   Clear
1:14 PM 72.7 °F 50.4 °F 45% 30.15 in 10.0 mi NNW 6.9 mph - N/A   Clear
1:34 PM 73.0 °F 50.9 °F 46% 30.14 in 10.0 mi North 8.1 mph - N/A   Clear
1:53 PM 73.8 °F 51.4 °F 45% 30.13 in 10.0 mi North 5.8 mph - N/A   Clear
2:14 PM 74.3 °F 50.7 °F 43% 30.13 in 10.0 mi NNW 4.6 mph - N/A   Clear
2:33 PM 74.7 °F 48.9 °F 40% 30.13 in 10.0 mi NW 4.6 mph - N/A   Clear
2:53 PM 75.6 °F 49.3 °F 39% 30.13 in 10.0 mi NW 6.9 mph - N/A   Clear
3:13 PM 75.2 °F 48.4 °F 39% 30.13 in 10.0 mi North 4.6 mph - N/A   Clear
3:34 PM 75.7 °F 49.5 °F 40% 30.12 in 10.0 mi NNE 4.6 mph - N/A   Clear
3:53 PM 76.3 °F 48.2 °F 37% 30.12 in 10.0 mi North 5.8 mph - N/A   Clear
4:14 PM 76.1 °F 48.0 °F 37% 30.11 in 10.0 mi Calm Calm - N/A   Clear
4:33 PM 76.3 °F 46.6 °F 35% 30.11 in 10.0 mi Calm Calm - N/A   Clear
4:53 PM 76.5 °F 47.1 °F 35% 30.10 in 10.0 mi Calm Calm - N/A   Clear
5:14 PM 77.0 °F 48.0 °F 36% 30.10 in 10.0 mi Calm Calm - N/A   Clear
5:33 PM 77.4 °F 47.1 °F 34% 30.10 in 10.0 mi SSW 3.5 mph - N/A   Clear
5:53 PM 77.4 °F 47.3 °F 35% 30.09 in 10.0 mi Calm Calm - N/A   Clear
6:12 PM 76.6 °F 47.1 °F 35% 30.08 in 10.0 mi Calm Calm - N/A   Clear
6:33 PM 77.0 °F 48.6 °F 37% 30.08 in 10.0 mi Calm Calm - N/A   Clear
6:53 PM 77.0 °F 49.3 °F 38% 30.08 in 10.0 mi Calm Calm - N/A   Clear
7:13 PM 76.3 °F 52.0 °F 43% 30.07 in 10.0 mi Calm Calm - N/A   Clear
7:34 PM 75.4 °F 52.2 °F 44% 30.07 in 10.0 mi Calm Calm - N/A   Clear
7:53 PM 74.3 °F 55.2 °F 51% 30.07 in 10.0 mi Calm Calm - N/A   Clear
8:13 PM 73.2 °F 54.0 °F 51% 30.07 in 10.0 mi Calm Calm - N/A   Clear
8:33 PM 72.0 °F 55.6 °F 56% 30.07 in 10.0 mi Calm Calm - N/A   Clear
8:53 PM 71.4 °F 54.5 °F 55% 30.08 in 10.0 mi Calm Calm - N/A   Clear
9:14 PM 70.2 °F 55.4 °F 59% 30.08 in 10.0 mi Calm Calm - N/A   Clear
9:32 PM 69.1 °F 54.5 °F 60% 30.08 in 10.0 mi Calm Calm - N/A   Clear
9:53 PM 67.1 °F 55.6 °F 66% 30.08 in 10.0 mi Calm Calm - N/A   Clear
10:13 PM 68.2 °F 54.5 °F 62% 30.09 in 10.0 mi Calm Calm - N/A   Clear
10:34 PM 66.4 °F 56.7 °F 71% 30.10 in 10.0 mi Calm Calm - N/A   Clear
10:53 PM 66.2 °F 55.0 °F 67% 30.11 in 10.0 mi Calm Calm - N/A   Clear
11:14 PM 64.9 °F 57.2 °F 76% 30.11 in 10.0 mi Calm Calm - N/A   Clear
11:33 PM 63.7 °F 57.4 °F 80% 30.11 in 10.0 mi Calm Calm - N/A   Clear
11:54 PM 63.9 °F 57.4 °F 79% 30.12 in 10.0 mi Calm Calm - N/A   Clear